ワイズ彗星

C/2010 D3 ( WISE )

English version
Home page
Updated on September 3, 2011

---------------------------------------------------------------------

・ プロフィール

発見日 2010年2月26日
発見光度
発見者 Wide Field Infrared Survey Explorer (NASA)

・ 写真集

・ 軌道要素

Epoch 2010 Sept. 1.0 TT = JDT 2455440.5
T 2010 Sept. 3.92590 TT                                 MPC
q   4.2474874            (2000.0)            P               Q
z  +0.0001222      Peri.  304.64260     -0.33202478     -0.08029054
 +/-0.0000027      Node   255.23841     -0.14101247     -0.98094938
e   0.9994809      Incl.   76.39155     -0.93267091     +0.17689471
From 57 observations 2010 Feb. 24-2011 Aug. 19, mean residual 0".7.

・ 光度変化

        m1 = 9.5 + 5 logΔ + 10.0 log r

---------------------------------------------------------------------

軌道要素はM.P.E.C. 2011-R11に掲載されたものです。
光度グラフはComet for Windowsで作成したものです。

---------------------------------------------------------------------

Copyright(C) Seiichi Yoshida (comet@aerith.net). All rights reserved.